Location: USNO
(38.9242°N, 77.0663°W)
Time: 07:23:00
(UTC-04:00)

Tiangong 1 - Pass Details

Date: 15 October 2017
Orbit: 294 x 321 km, 42.8° (Epoch: 17 October)

Event Time Altitude Azimuth Distance (km) Brightness Sun altitude
Rises 20:15:29 0° 283° (WNW) 2,036 6.2 -21.4°
Reaches altitude 10° 20:17:40 10° 269° (W) 1,199 4.7 -21.8°
Enters shadow 20:19:13 21° 237° (WSW) 761 3.1 -22.1°
